Location: Appeville
(49.3218°N, 1.3427°W)
Time: 06:09:59
(UTC+00:00)

Cosmos 1933 Rocket - Pass Details

Date: 08 December 2019
Orbit: 607 x 629 km, 82.5° (Epoch: 28 January)

Event Time Altitude Azimuth Distance (km) Brightness Sun altitude
Rises 04:42:17 0° 172° (S) 2,854 7.1 -29.0°
Reaches altitude 10° 04:44:33 10° 166° (SSE) 1,955 6.3 -28.7°
Maximum altitude 04:48:40 46° 94° (E) 824 4.5 -28.0°
Drops below altitude 10° 04:52:51 10° 21° (NNE) 1,975 6.3 -27.3°
Sets 04:55:08 0° 15° (NNE) 2,887 7.1 -26.9°
